N56SF KCOU-KSHV

Flight info

Callsign N56SF
Flight time 1h 39m
Altitude 30000
Route COU ADDIE EIC
Aircraft SF50/L-BDGRSWY/LB2U2

Departure

Time 2026-04-17 17:04
Airport Columbia Regional Airport (KCOU)

Arrival

Time 2026-04-17 18:43
Airport Shreveport Regional Airport (KSHV)
Time Latitude Longitude Altitude Speed Heading
2026-04-17 16:45 38.81917 -92.22011 892 ft 0 kts 289°
2026-04-17 16:58 38.81912 -92.22003 892 ft 3 kts 107°
2026-04-17 16:59 38.81909 -92.21994 892 ft 0 kts 112°
2026-04-17 16:59 38.81902 -92.21976 892 ft 6 kts 121°
2026-04-17 16:59 38.81880 -92.21923 892 ft 7 kts 111°
2026-04-17 16:59 38.81870 -92.21860 892 ft 8 kts 57°
2026-04-17 17:00 38.81917 -92.21826 892 ft 7 kts 22°
2026-04-17 17:00 38.81960 -92.21803 892 ft 6 kts 22°
2026-04-17 17:00 38.82009 -92.21779 892 ft 8 kts 21°
2026-04-17 17:00 38.82071 -92.21748 892 ft 11 kts 21°
2026-04-17 17:01 38.82135 -92.21716 892 ft 6 kts 22°
2026-04-17 17:01 38.82161 -92.21702 892 ft 2 kts 22°
2026-04-17 17:01 38.82164 -92.21700 892 ft 0 kts 22°
2026-04-17 17:02 38.82187 -92.21687 891 ft 8 kts 23°
2026-04-17 17:02 38.82203 -92.21643 891 ft 5 kts 128°
2026-04-17 17:02 38.82179 -92.21613 892 ft 5 kts 135°
2026-04-17 17:02 38.82153 -92.21581 893 ft 5 kts 134°
2026-04-17 17:03 38.82123 -92.21571 893 ft 2 kts 202°
2026-04-17 17:03 38.82113 -92.21576 893 ft 8 kts 202°
2026-04-17 17:04 38.81836 -92.21713 892 ft 79 kts 199°
2026-04-17 17:04 38.81227 -92.22028 1257 ft 100 kts 195°
2026-04-17 17:04 38.80592 -92.22416 1636 ft 107 kts 203°
2026-04-17 17:04 38.79830 -92.22778 1734 ft 129 kts 201°
2026-04-17 17:05 38.78916 -92.23163 1793 ft 144 kts 200°
2026-04-17 17:05 38.77985 -92.23552 2041 ft 143 kts 199°
2026-04-17 17:05 38.77031 -92.23981 2248 ft 145 kts 200°
2026-04-17 17:05 38.76075 -92.24366 2498 ft 143 kts 200°
2026-04-17 17:06 38.75132 -92.24766 2760 ft 140 kts 201°
2026-04-17 17:06 38.74238 -92.25140 3348 ft 134 kts 199°
2026-04-17 17:06 38.73359 -92.25518 3975 ft 132 kts 202°
2026-04-17 17:06 38.72501 -92.25883 4681 ft 130 kts 203°
2026-04-17 17:07 38.71624 -92.26260 5240 ft 135 kts 203°
2026-04-17 17:07 38.70729 -92.26636 5846 ft 136 kts 201°
2026-04-17 17:07 38.69820 -92.27022 6379 ft 140 kts 200°
2026-04-17 17:07 38.68880 -92.27425 6848 ft 144 kts 200°
2026-04-17 17:08 38.67891 -92.27844 7213 ft 155 kts 200°
2026-04-17 17:08 38.66861 -92.28283 7713 ft 156 kts 200°
2026-04-17 17:08 38.65810 -92.28673 8207 ft 160 kts 194°
2026-04-17 17:08 38.64705 -92.28939 8693 ft 163 kts 194°
2026-04-17 17:09 38.63592 -92.29241 9225 ft 163 kts 194°
2026-04-17 17:09 38.62492 -92.29546 9799 ft 161 kts 193°
2026-04-17 17:09 38.61389 -92.29857 10284 ft 163 kts 193°
2026-04-17 17:09 38.60279 -92.30166 10762 ft 164 kts 194°
2026-04-17 17:10 38.59165 -92.30477 11253 ft 164 kts 194°
2026-04-17 17:10 38.58043 -92.30792 11734 ft 165 kts 195°
2026-04-17 17:10 38.56917 -92.31103 12223 ft 166 kts 195°
2026-04-17 17:10 38.55798 -92.31415 12719 ft 167 kts 196°
2026-04-17 17:11 38.54664 -92.31730 13212 ft 167 kts 196°
2026-04-17 17:11 38.53524 -92.32050 13702 ft 168 kts 197°
2026-04-17 17:11 38.52378 -92.32370 14130 ft 169 kts 197°
2026-04-17 17:11 38.51218 -92.32692 14536 ft 171 kts 197°
2026-04-17 17:12 38.50051 -92.33019 14962 ft 172 kts 197°
2026-04-17 17:12 38.48874 -92.33348 15377 ft 174 kts 197°
2026-04-17 17:12 38.47683 -92.33679 15780 ft 176 kts 198°
2026-04-17 17:12 38.46475 -92.34015 16173 ft 178 kts 198°
2026-04-17 17:13 38.45257 -92.34353 16566 ft 180 kts 198°
2026-04-17 17:13 38.44030 -92.34693 16971 ft 181 kts 198°
2026-04-17 17:13 38.42790 -92.35034 17356 ft 183 kts 198°
2026-04-17 17:13 38.41540 -92.35382 17735 ft 185 kts 198°
2026-04-17 17:14 38.40275 -92.35733 18105 ft 187 kts 198°
2026-04-17 17:14 38.39003 -92.36088 18440 ft 188 kts 199°
2026-04-17 17:14 38.37722 -92.36443 18755 ft 189 kts 199°
2026-04-17 17:15 38.35136 -92.37162 19416 ft 191 kts 199°
2026-04-17 17:15 38.33833 -92.37524 19730 ft 192 kts 199°
2026-04-17 17:15 38.32526 -92.37889 20038 ft 193 kts 199°
2026-04-17 17:15 38.31226 -92.38248 20351 ft 194 kts 199°
2026-04-17 17:16 38.29904 -92.38613 20665 ft 195 kts 199°
2026-04-17 17:16 38.28579 -92.38981 20979 ft 195 kts 199°
2026-04-17 17:16 38.27258 -92.39344 21319 ft 194 kts 199°
2026-04-17 17:16 38.25936 -92.39708 21657 ft 194 kts 199°
2026-04-17 17:17 38.24621 -92.40071 22005 ft 193 kts 200°
2026-04-17 17:17 38.23312 -92.40434 22354 ft 192 kts 200°
2026-04-17 17:17 38.22005 -92.40795 22705 ft 192 kts 200°
2026-04-17 17:17 38.20700 -92.41159 23041 ft 192 kts 200°
2026-04-17 17:18 38.19401 -92.41515 23392 ft 191 kts 200°
2026-04-17 17:18 38.18103 -92.41875 23696 ft 190 kts 200°
2026-04-17 17:18 38.16811 -92.42232 23983 ft 190 kts 201°
2026-04-17 17:18 38.15518 -92.42589 24233 ft 191 kts 201°
2026-04-17 17:19 38.14220 -92.42944 24509 ft 191 kts 201°
2026-04-17 17:19 38.12925 -92.43301 24801 ft 190 kts 201°
2026-04-17 17:19 38.11637 -92.43655 25093 ft 189 kts 202°
2026-04-17 17:19 38.10355 -92.44008 25396 ft 188 kts 202°
2026-04-17 17:20 38.09081 -92.44363 25527 ft 195 kts 202°
2026-04-17 17:20 38.07716 -92.44744 25544 ft 206 kts 201°
2026-04-17 17:20 38.06288 -92.45134 25597 ft 212 kts 201°
2026-04-17 17:20 38.04843 -92.45527 25778 ft 212 kts 201°
2026-04-17 17:21 38.03401 -92.45923 25920 ft 213 kts 202°
2026-04-17 17:21 38.01974 -92.46319 25920 ft 215 kts 201°
2026-04-17 17:21 38.00487 -92.46729 25921 ft 222 kts 201°
2026-04-17 17:21 37.98957 -92.47151 25926 ft 228 kts 201°
2026-04-17 17:22 37.97385 -92.47582 25929 ft 233 kts 201°
2026-04-17 17:22 37.95783 -92.48021 25907 ft 238 kts 201°
2026-04-17 17:22 37.94147 -92.48470 25907 ft 243 kts 201°
2026-04-17 17:22 37.92477 -92.48924 25896 ft 248 kts 201°
2026-04-17 17:23 37.90794 -92.49384 25902 ft 253 kts 200°
2026-04-17 17:23 37.89064 -92.49856 25909 ft 256 kts 200°
2026-04-17 17:23 37.87307 -92.50339 25917 ft 259 kts 200°
2026-04-17 17:23 37.85534 -92.50822 25922 ft 262 kts 200°
2026-04-17 17:24 37.83750 -92.51308 25928 ft 264 kts 200°
2026-04-17 17:24 37.81948 -92.51801 25932 ft 265 kts 200°
2026-04-17 17:24 37.80140 -92.52296 25936 ft 267 kts 200°
2026-04-17 17:24 37.78320 -92.52793 25940 ft 268 kts 200°
2026-04-17 17:25 37.76498 -92.53291 25943 ft 268 kts 200°
2026-04-17 17:25 37.74667 -92.53790 25944 ft 269 kts 200°
2026-04-17 17:25 37.72832 -92.54290 25947 ft 270 kts 200°
2026-04-17 17:25 37.71000 -92.54789 25950 ft 270 kts 200°
2026-04-17 17:26 37.69158 -92.55289 25953 ft 271 kts 200°
2026-04-17 17:26 37.67317 -92.55789 25937 ft 271 kts 201°
2026-04-17 17:26 37.65477 -92.56290 25937 ft 271 kts 201°
2026-04-17 17:26 37.63634 -92.56792 25937 ft 271 kts 201°
2026-04-17 17:27 37.61786 -92.57291 25939 ft 271 kts 201°
2026-04-17 17:27 37.59937 -92.57795 25940 ft 271 kts 201°
2026-04-17 17:27 37.58112 -92.58290 25939 ft 271 kts 201°
2026-04-17 17:27 37.56266 -92.58792 25938 ft 272 kts 201°
2026-04-17 17:28 37.54415 -92.59295 25936 ft 272 kts 201°
2026-04-17 17:28 37.52568 -92.59794 25934 ft 271 kts 201°
2026-04-17 17:28 37.50721 -92.60297 25932 ft 272 kts 201°
2026-04-17 17:28 37.48869 -92.60797 25930 ft 272 kts 201°
2026-04-17 17:29 37.47019 -92.61298 25929 ft 272 kts 201°
2026-04-17 17:29 37.45169 -92.61797 25927 ft 272 kts 201°
2026-04-17 17:29 37.43318 -92.62296 25920 ft 272 kts 201°
2026-04-17 17:29 37.41470 -92.62797 25916 ft 272 kts 201°
2026-04-17 17:30 37.39621 -92.63294 25918 ft 271 kts 201°
2026-04-17 17:30 37.37783 -92.63790 25916 ft 268 kts 201°
2026-04-17 17:30 37.35965 -92.64279 25914 ft 266 kts 201°
2026-04-17 17:30 37.34158 -92.64769 25914 ft 266 kts 201°
2026-04-17 17:31 37.32340 -92.65264 25912 ft 267 kts 201°
2026-04-17 17:31 37.30518 -92.65755 25910 ft 268 kts 201°
2026-04-17 17:31 37.28692 -92.66245 25917 ft 269 kts 201°
2026-04-17 17:31 37.26884 -92.66732 25917 ft 269 kts 201°
2026-04-17 17:32 37.25052 -92.67226 25917 ft 270 kts 201°
2026-04-17 17:32 37.23221 -92.67717 25917 ft 268 kts 201°
2026-04-17 17:32 37.21397 -92.68206 25916 ft 267 kts 201°
2026-04-17 17:32 37.19584 -92.68692 25918 ft 266 kts 201°
2026-04-17 17:33 37.17773 -92.69180 25913 ft 266 kts 201°
2026-04-17 17:33 37.15957 -92.69666 25913 ft 267 kts 201°
2026-04-17 17:33 37.14137 -92.70153 25913 ft 267 kts 201°
2026-04-17 17:33 37.12319 -92.70644 25914 ft 268 kts 201°
2026-04-17 17:34 37.10493 -92.71131 25918 ft 268 kts 201°
2026-04-17 17:34 37.08664 -92.71621 25918 ft 268 kts 201°
2026-04-17 17:34 37.07451 -92.71945 25918 ft 269 kts 201°
2026-04-17 17:34 37.05030 -92.72594 25919 ft 269 kts 201°
2026-04-17 17:35 37.03193 -92.73087 25922 ft 270 kts 201°
2026-04-17 17:35 37.01355 -92.73577 25923 ft 270 kts 201°
2026-04-17 17:35 36.99516 -92.74067 25924 ft 268 kts 201°
2026-04-17 17:35 36.98310 -92.74389 25923 ft 268 kts 201°
2026-04-17 17:36 36.96489 -92.74874 25910 ft 267 kts 201°
2026-04-17 17:36 36.94679 -92.75358 25910 ft 266 kts 201°
2026-04-17 17:36 36.92865 -92.75842 25909 ft 267 kts 201°
2026-04-17 17:36 36.91045 -92.76328 25912 ft 267 kts 201°
2026-04-17 17:37 36.89226 -92.76811 25913 ft 267 kts 201°
2026-04-17 17:37 36.87405 -92.77295 25912 ft 268 kts 201°
2026-04-17 17:37 36.85583 -92.77780 25914 ft 268 kts 201°
2026-04-17 17:37 36.83749 -92.78265 25914 ft 269 kts 201°
2026-04-17 17:38 36.81922 -92.78755 25912 ft 269 kts 201°
2026-04-17 17:38 36.80092 -92.79244 25914 ft 269 kts 201°
2026-04-17 17:38 36.78257 -92.79728 25915 ft 270 kts 201°
2026-04-17 17:38 36.76422 -92.80215 25915 ft 270 kts 201°
2026-04-17 17:39 36.74592 -92.80700 25915 ft 268 kts 201°
2026-04-17 17:39 36.72773 -92.81182 25914 ft 267 kts 201°
2026-04-17 17:39 36.70980 -92.81660 25908 ft 266 kts 201°
2026-04-17 17:39 36.69175 -92.82138 25915 ft 266 kts 201°
2026-04-17 17:40 36.67358 -92.82619 25913 ft 267 kts 201°
2026-04-17 17:40 36.65539 -92.83099 25915 ft 268 kts 201°
2026-04-17 17:40 36.63713 -92.83582 25917 ft 268 kts 201°
2026-04-17 17:40 36.61886 -92.84066 25917 ft 269 kts 201°
2026-04-17 17:41 36.60058 -92.84549 25924 ft 269 kts 201°
2026-04-17 17:41 36.58227 -92.85030 25925 ft 268 kts 201°
2026-04-17 17:41 36.56405 -92.85513 25923 ft 267 kts 201°
2026-04-17 17:41 36.54594 -92.85991 25939 ft 266 kts 201°
2026-04-17 17:42 36.52789 -92.86467 25936 ft 265 kts 201°
2026-04-17 17:42 36.50985 -92.86944 25940 ft 264 kts 201°
2026-04-17 17:42 36.49189 -92.87418 25939 ft 265 kts 201°
2026-04-17 17:42 36.47381 -92.87895 25941 ft 266 kts 201°
2026-04-17 17:43 36.45573 -92.88370 25945 ft 265 kts 201°
2026-04-17 17:43 36.43788 -92.88840 25944 ft 266 kts 201°
2026-04-17 17:43 36.41974 -92.89318 25948 ft 266 kts 201°
2026-04-17 17:43 36.40161 -92.89791 25952 ft 265 kts 201°
2026-04-17 17:44 36.38358 -92.90264 25953 ft 264 kts 201°
2026-04-17 17:44 36.36559 -92.90740 25955 ft 264 kts 201°
2026-04-17 17:44 36.34765 -92.91210 25957 ft 263 kts 201°
2026-04-17 17:44 36.32970 -92.91681 25958 ft 264 kts 201°
2026-04-17 17:45 36.31170 -92.92154 25961 ft 265 kts 201°
2026-04-17 17:45 36.29363 -92.92628 25964 ft 265 kts 201°
2026-04-17 17:45 36.27555 -92.93103 25965 ft 266 kts 201°
2026-04-17 17:45 36.25744 -92.93576 25966 ft 266 kts 201°
2026-04-17 17:46 36.23927 -92.94052 25969 ft 266 kts 201°
2026-04-17 17:46 36.22111 -92.94528 25970 ft 266 kts 201°
2026-04-17 17:46 36.20298 -92.95001 25977 ft 266 kts 201°
2026-04-17 17:46 36.18506 -92.95469 25968 ft 266 kts 201°
2026-04-17 17:47 36.16687 -92.95944 25965 ft 267 kts 201°
2026-04-17 17:47 36.14871 -92.96419 25976 ft 267 kts 201°
2026-04-17 17:47 36.13052 -92.96891 25964 ft 267 kts 201°
2026-04-17 17:47 36.11230 -92.97368 25964 ft 267 kts 202°
2026-04-17 17:48 36.09409 -92.97844 25962 ft 268 kts 201°
2026-04-17 17:48 36.07583 -92.98322 25961 ft 268 kts 201°
2026-04-17 17:48 36.05757 -92.98797 25965 ft 269 kts 201°
2026-04-17 17:48 36.03928 -92.99271 25959 ft 268 kts 202°
2026-04-17 17:49 36.02102 -92.99747 25954 ft 268 kts 201°
2026-04-17 17:49 36.00283 -93.00223 25957 ft 268 kts 201°
2026-04-17 17:49 35.98454 -93.00700 25955 ft 269 kts 201°
2026-04-17 17:49 35.96622 -93.01174 25953 ft 269 kts 201°
2026-04-17 17:50 35.94797 -93.01650 25957 ft 267 kts 201°
2026-04-17 17:50 35.92996 -93.02114 25962 ft 267 kts 201°
2026-04-17 17:50 35.91182 -93.02584 25961 ft 266 kts 201°
2026-04-17 17:50 35.89377 -93.03053 25959 ft 264 kts 201°
2026-04-17 17:51 35.87581 -93.03519 25956 ft 263 kts 202°
2026-04-17 17:51 35.85796 -93.03980 25956 ft 261 kts 201°
2026-04-17 17:51 35.84015 -93.04439 25970 ft 262 kts 202°
2026-04-17 17:51 35.82231 -93.04909 25968 ft 263 kts 202°
2026-04-17 17:52 35.80433 -93.05374 25972 ft 264 kts 201°
2026-04-17 17:52 35.78630 -93.05839 25971 ft 265 kts 201°
2026-04-17 17:52 35.76824 -93.06306 25972 ft 266 kts 201°
2026-04-17 17:52 35.75011 -93.06776 25971 ft 266 kts 201°
2026-04-17 17:53 35.73198 -93.07244 25972 ft 266 kts 201°
2026-04-17 17:53 35.71410 -93.07707 25961 ft 266 kts 201°
2026-04-17 17:53 35.69591 -93.08175 25967 ft 267 kts 202°
2026-04-17 17:53 35.67771 -93.08643 25962 ft 267 kts 202°
2026-04-17 17:54 35.65947 -93.09115 25963 ft 268 kts 201°
2026-04-17 17:54 35.64127 -93.09584 25962 ft 266 kts 201°
2026-04-17 17:54 35.62320 -93.10046 25964 ft 265 kts 202°
2026-04-17 17:54 35.60518 -93.10512 25963 ft 265 kts 202°
2026-04-17 17:55 35.58714 -93.10977 25967 ft 264 kts 202°
2026-04-17 17:55 35.56916 -93.11437 25970 ft 264 kts 202°
2026-04-17 17:55 35.55117 -93.11903 25971 ft 264 kts 202°
2026-04-17 17:55 35.53323 -93.12364 25975 ft 264 kts 202°
2026-04-17 17:56 35.51546 -93.12823 25982 ft 265 kts 202°
2026-04-17 17:56 35.49741 -93.13287 25986 ft 265 kts 202°
2026-04-17 17:56 35.47933 -93.13748 25992 ft 265 kts 202°
2026-04-17 17:56 35.46122 -93.14214 25990 ft 265 kts 202°
2026-04-17 17:57 35.44323 -93.14673 25988 ft 264 kts 202°
2026-04-17 17:57 35.42527 -93.15134 25990 ft 263 kts 202°
2026-04-17 17:57 35.40736 -93.15593 25990 ft 263 kts 202°
2026-04-17 17:57 35.38941 -93.16054 25993 ft 263 kts 202°
2026-04-17 17:58 35.37147 -93.16514 25997 ft 263 kts 202°
2026-04-17 17:58 35.35348 -93.16973 25998 ft 264 kts 202°
2026-04-17 17:58 35.33571 -93.17427 26000 ft 264 kts 202°
2026-04-17 17:58 35.31749 -93.17896 26002 ft 264 kts 202°
2026-04-17 17:59 35.29969 -93.18349 26002 ft 264 kts 202°
2026-04-17 17:59 35.28164 -93.18811 26003 ft 265 kts 202°
2026-04-17 17:59 35.26354 -93.19273 26002 ft 265 kts 202°
2026-04-17 17:59 35.24550 -93.19734 26003 ft 265 kts 202°
2026-04-17 18:00 35.22746 -93.20194 25998 ft 265 kts 202°
2026-04-17 18:00 35.20936 -93.20655 25996 ft 265 kts 202°
2026-04-17 18:00 35.19138 -93.21111 25998 ft 264 kts 202°
2026-04-17 18:00 35.17344 -93.21570 25996 ft 263 kts 202°
2026-04-17 18:01 35.15549 -93.22026 25965 ft 263 kts 202°
2026-04-17 18:01 35.13755 -93.22483 25966 ft 264 kts 202°
2026-04-17 18:01 35.11959 -93.22939 25965 ft 264 kts 202°
2026-04-17 18:01 35.10184 -93.23389 25966 ft 264 kts 202°
2026-04-17 18:02 35.08390 -93.23848 25965 ft 263 kts 202°
2026-04-17 18:02 35.06592 -93.24304 25965 ft 264 kts 202°
2026-04-17 18:02 35.04794 -93.24762 25965 ft 264 kts 202°
2026-04-17 18:02 35.02999 -93.25218 25965 ft 264 kts 202°
2026-04-17 18:03 35.01204 -93.25673 25963 ft 264 kts 202°
2026-04-17 18:03 34.99405 -93.26131 25965 ft 264 kts 202°
2026-04-17 18:03 34.97607 -93.26585 25966 ft 264 kts 202°
2026-04-17 18:03 34.95807 -93.27041 25966 ft 264 kts 202°
2026-04-17 18:04 34.94005 -93.27496 25962 ft 264 kts 202°
2026-04-17 18:04 34.92210 -93.27951 25964 ft 263 kts 202°
2026-04-17 18:04 34.90436 -93.28399 25964 ft 263 kts 202°
2026-04-17 18:04 34.88641 -93.28853 25967 ft 263 kts 202°
2026-04-17 18:05 34.86843 -93.29307 25967 ft 264 kts 202°
2026-04-17 18:05 34.85046 -93.29762 25967 ft 264 kts 202°
2026-04-17 18:05 34.83247 -93.30216 25968 ft 264 kts 202°
2026-04-17 18:05 34.81443 -93.30673 25968 ft 264 kts 202°
2026-04-17 18:06 34.79642 -93.31128 25966 ft 264 kts 202°
2026-04-17 18:06 34.77839 -93.31584 25974 ft 265 kts 202°
2026-04-17 18:06 34.76031 -93.32039 25975 ft 265 kts 202°
2026-04-17 18:06 34.74225 -93.32494 25978 ft 265 kts 202°
2026-04-17 18:07 34.72416 -93.32949 25981 ft 265 kts 202°
2026-04-17 18:07 34.70611 -93.33403 25984 ft 265 kts 202°
2026-04-17 18:07 34.68802 -93.33859 25973 ft 265 kts 202°
2026-04-17 18:07 34.66999 -93.34312 25992 ft 264 kts 202°
2026-04-17 18:08 34.65198 -93.34764 25993 ft 264 kts 202°
2026-04-17 18:08 34.63414 -93.35213 25994 ft 264 kts 202°
2026-04-17 18:08 34.61615 -93.35664 25996 ft 265 kts 202°
2026-04-17 18:08 34.59813 -93.36118 25989 ft 265 kts 202°
2026-04-17 18:09 34.58006 -93.36571 25985 ft 265 kts 202°
2026-04-17 18:09 34.56201 -93.37024 25991 ft 264 kts 202°
2026-04-17 18:09 34.54401 -93.37474 25992 ft 264 kts 202°
2026-04-17 18:09 34.52605 -93.37928 25993 ft 264 kts 202°
2026-04-17 18:10 34.50803 -93.38382 25992 ft 264 kts 202°
2026-04-17 18:10 34.48997 -93.38831 25992 ft 265 kts 202°
2026-04-17 18:10 34.47195 -93.39281 25994 ft 265 kts 202°
2026-04-17 18:10 34.45390 -93.39732 25993 ft 264 kts 202°
2026-04-17 18:11 34.43591 -93.40184 25978 ft 264 kts 202°
2026-04-17 18:11 34.41813 -93.40629 25979 ft 264 kts 202°
2026-04-17 18:11 34.40010 -93.41077 25978 ft 264 kts 202°
2026-04-17 18:11 34.38205 -93.41528 25978 ft 265 kts 202°
2026-04-17 18:12 34.36401 -93.41978 25983 ft 265 kts 202°
2026-04-17 18:12 34.34596 -93.42430 25983 ft 265 kts 202°
2026-04-17 18:12 34.32787 -93.42882 25983 ft 265 kts 202°
2026-04-17 18:12 34.30980 -93.43332 25983 ft 265 kts 202°
2026-04-17 18:13 34.29171 -93.43783 25983 ft 265 kts 202°
2026-04-17 18:13 34.27363 -93.44235 25984 ft 265 kts 202°
2026-04-17 18:13 34.25554 -93.44685 25996 ft 266 kts 202°
2026-04-17 18:13 34.23743 -93.45136 25996 ft 266 kts 202°
2026-04-17 18:14 34.21930 -93.45587 25994 ft 266 kts 202°
2026-04-17 18:14 34.20115 -93.46036 25994 ft 266 kts 202°
2026-04-17 18:14 34.18298 -93.46487 25993 ft 266 kts 202°
2026-04-17 18:14 34.16487 -93.46938 25977 ft 266 kts 202°
2026-04-17 18:15 34.14697 -93.47383 25996 ft 265 kts 202°
2026-04-17 18:15 34.12887 -93.47831 25995 ft 265 kts 202°
2026-04-17 18:15 34.11079 -93.48280 25999 ft 265 kts 202°
2026-04-17 18:15 34.09270 -93.48728 26000 ft 265 kts 202°
2026-04-17 18:16 34.07459 -93.49180 25999 ft 266 kts 202°
2026-04-17 18:16 34.05648 -93.49628 26011 ft 266 kts 202°
2026-04-17 18:16 34.03832 -93.50079 26011 ft 266 kts 202°
2026-04-17 18:16 34.02018 -93.50528 26011 ft 266 kts 202°
2026-04-17 18:17 34.00199 -93.50978 26001 ft 267 kts 202°
2026-04-17 18:17 33.96563 -93.51877 26001 ft 267 kts 201°
2026-04-17 18:17 33.94744 -93.52326 26008 ft 267 kts 202°
2026-04-17 18:18 33.92946 -93.52771 26007 ft 267 kts 202°
2026-04-17 18:18 33.91125 -93.53219 26007 ft 267 kts 202°
2026-04-17 18:18 33.89306 -93.53670 26004 ft 267 kts 201°
2026-04-17 18:18 33.87480 -93.54119 26003 ft 267 kts 201°
2026-04-17 18:19 33.85667 -93.54566 26001 ft 267 kts 201°
2026-04-17 18:19 33.83853 -93.55015 26012 ft 267 kts 201°
2026-04-17 18:19 33.82031 -93.55463 26013 ft 267 kts 201°
2026-04-17 18:19 33.80209 -93.55913 26012 ft 267 kts 201°
2026-04-17 18:20 33.78386 -93.56361 26013 ft 268 kts 201°
2026-04-17 18:20 33.76563 -93.56810 26014 ft 268 kts 201°
2026-04-17 18:20 33.74735 -93.57262 26014 ft 268 kts 201°
2026-04-17 18:20 33.72907 -93.57710 26016 ft 268 kts 201°
2026-04-17 18:21 33.71086 -93.58157 26012 ft 268 kts 201°
2026-04-17 18:21 33.69263 -93.58608 25789 ft 274 kts 201°
2026-04-17 18:21 33.67378 -93.59075 25443 ft 278 kts 201°
2026-04-17 18:21 33.65482 -93.59531 25077 ft 278 kts 201°
2026-04-17 18:22 33.63586 -93.59996 24707 ft 278 kts 201°
2026-04-17 18:22 33.61692 -93.60464 24336 ft 278 kts 200°
2026-04-17 18:22 33.59785 -93.60933 23975 ft 281 kts 200°
2026-04-17 18:22 33.58512 -93.61245 23730 ft 282 kts 200°
2026-04-17 18:23 33.56582 -93.61715 23321 ft 284 kts 200°
2026-04-17 18:23 33.54648 -93.62189 22937 ft 284 kts 200°
2026-04-17 18:23 33.52710 -93.62666 22560 ft 284 kts 199°
2026-04-17 18:23 33.50767 -93.63141 22186 ft 286 kts 199°
2026-04-17 18:24 33.48811 -93.63619 21812 ft 288 kts 199°
2026-04-17 18:24 33.46845 -93.64100 21427 ft 289 kts 199°
2026-04-17 18:24 33.44871 -93.64582 21045 ft 290 kts 198°
2026-04-17 18:24 33.42886 -93.65067 20661 ft 291 kts 198°
2026-04-17 18:25 33.40893 -93.65552 20275 ft 293 kts 198°
2026-04-17 18:25 33.38889 -93.66042 19887 ft 295 kts 198°
2026-04-17 18:25 33.36875 -93.66532 19500 ft 296 kts 197°
2026-04-17 18:25 33.34852 -93.67024 19108 ft 297 kts 197°
2026-04-17 18:26 33.32817 -93.67521 18716 ft 299 kts 197°
2026-04-17 18:26 33.30770 -93.68019 18322 ft 301 kts 196°
2026-04-17 18:26 33.28717 -93.68515 17894 ft 301 kts 196°
2026-04-17 18:26 33.26668 -93.69014 17493 ft 301 kts 196°
2026-04-17 18:27 33.24616 -93.69515 17067 ft 302 kts 196°
2026-04-17 18:27 33.22560 -93.70015 16661 ft 300 kts 196°
2026-04-17 18:27 33.20531 -93.70508 16267 ft 296 kts 196°
2026-04-17 18:27 33.18525 -93.70992 15879 ft 293 kts 195°
2026-04-17 18:28 33.16530 -93.71477 15496 ft 293 kts 195°
2026-04-17 18:28 33.14561 -93.71956 15112 ft 291 kts 195°
2026-04-17 18:28 33.12583 -93.72433 14734 ft 288 kts 195°
2026-04-17 18:28 33.10629 -93.72909 14365 ft 286 kts 195°
2026-04-17 18:29 33.08682 -93.73382 13998 ft 284 kts 195°
2026-04-17 18:29 33.06774 -93.73935 13612 ft 280 kts 203°
2026-04-17 18:29 33.05058 -93.74987 13247 ft 277 kts 213°
2026-04-17 18:29 33.03411 -93.76186 12883 ft 276 kts 213°
2026-04-17 18:30 33.01725 -93.77268 12518 ft 276 kts 208°
2026-04-17 18:30 32.99992 -93.78236 12159 ft 273 kts 207°
2026-04-17 18:30 32.98286 -93.79217 11805 ft 270 kts 209°
2026-04-17 18:30 32.96606 -93.80228 11455 ft 271 kts 209°
2026-04-17 18:31 32.94916 -93.81235 11094 ft 271 kts 208°
2026-04-17 18:31 32.93231 -93.82228 10722 ft 269 kts 208°
2026-04-17 18:31 32.91558 -93.83214 10377 ft 267 kts 208°
2026-04-17 18:31 32.89904 -93.84193 10029 ft 265 kts 208°
2026-04-17 18:32 32.88251 -93.85172 9662 ft 265 kts 208°
2026-04-17 18:32 32.86605 -93.86144 9311 ft 263 kts 208°
2026-04-17 18:32 32.84987 -93.87097 8971 ft 262 kts 208°
2026-04-17 18:32 32.83337 -93.88072 8618 ft 261 kts 208°
2026-04-17 18:33 32.81733 -93.89017 8284 ft 260 kts 207°
2026-04-17 18:33 32.80112 -93.89974 7947 ft 260 kts 207°
2026-04-17 18:33 32.78491 -93.90929 7605 ft 258 kts 207°
2026-04-17 18:33 32.76934 -93.91846 7291 ft 238 kts 206°
2026-04-17 18:34 32.75516 -93.92678 7013 ft 216 kts 206°
2026-04-17 18:34 32.74204 -93.93451 6755 ft 206 kts 206°
2026-04-17 18:34 32.72932 -93.94198 6505 ft 202 kts 205°
2026-04-17 18:34 32.71679 -93.94934 6231 ft 200 kts 205°
2026-04-17 18:35 32.70426 -93.95673 5963 ft 201 kts 205°
2026-04-17 18:35 32.69175 -93.96407 5697 ft 200 kts 205°
2026-04-17 18:35 32.67954 -93.97128 5438 ft 188 kts 205°
2026-04-17 18:35 32.66842 -93.97783 5220 ft 168 kts 204°
2026-04-17 18:36 32.65896 -93.98338 5046 ft 140 kts 204°
2026-04-17 18:36 32.64993 -93.98852 4865 ft 148 kts 200°
2026-04-17 18:36 32.63996 -93.99099 4667 ft 148 kts 184°
2026-04-17 18:36 32.62969 -93.98971 4469 ft 150 kts 168°
2026-04-17 18:37 32.62012 -93.98462 4271 ft 154 kts 152°
2026-04-17 18:37 32.61164 -93.97682 4064 ft 154 kts 147°
2026-04-17 18:37 32.60311 -93.96919 3865 ft 153 kts 148°
2026-04-17 18:37 32.59471 -93.96163 3663 ft 151 kts 148°
2026-04-17 18:38 32.58625 -93.95406 3466 ft 153 kts 148°
2026-04-17 18:38 32.57778 -93.94642 3260 ft 152 kts 147°
2026-04-17 18:38 32.56937 -93.93880 3058 ft 153 kts 147°
2026-04-17 18:38 32.56092 -93.93119 2856 ft 146 kts 148°
2026-04-17 18:39 32.55346 -93.92441 2675 ft 121 kts 148°
2026-04-17 18:39 32.54726 -93.91891 2530 ft 109 kts 150°
2026-04-17 18:39 32.54127 -93.91368 2396 ft 109 kts 149°
2026-04-17 18:39 32.53514 -93.90821 2257 ft 111 kts 147°
2026-04-17 18:40 32.52898 -93.90261 2116 ft 111 kts 147°
2026-04-17 18:40 32.52284 -93.89706 1967 ft 111 kts 148°
2026-04-17 18:40 32.51661 -93.89144 1821 ft 113 kts 149°
2026-04-17 18:40 32.51032 -93.88583 1671 ft 114 kts 148°
2026-04-17 18:41 32.50407 -93.88019 1524 ft 107 kts 148°
2026-04-17 18:41 32.49827 -93.87491 1382 ft 105 kts 149°
2026-04-17 18:41 32.49247 -93.86968 1249 ft 106 kts 151°
2026-04-17 18:41 32.48656 -93.86440 1119 ft 104 kts 152°
2026-04-17 18:42 32.48073 -93.85921 1004 ft 107 kts 149°
2026-04-17 18:42 32.47489 -93.85393 866 ft 104 kts 146°
2026-04-17 18:42 32.46933 -93.84867 697 ft 102 kts 146°
2026-04-17 18:42 32.46381 -93.84370 544 ft 95 kts 150°
2026-04-17 18:43 32.45875 -93.83930 424 ft 86 kts 146°
2026-04-17 18:43 32.45397 -93.83501 294 ft 86 kts 144°
2026-04-17 18:43 32.44973 -93.83118 236 ft 64 kts 146°
2026-04-17 18:43 32.44695 -93.82870 225 ft 35 kts 141°
2026-04-17 18:44 32.44541 -93.82730 229 ft 23 kts 142°
2026-04-17 18:44 32.44480 -93.82660 228 ft 9 kts 91°
2026-04-17 18:44 32.44500 -93.82613 228 ft 4 kts 51°
2026-04-17 18:44 32.44515 -93.82591 228 ft 4 kts 51°
2026-04-17 18:45 32.44539 -93.82553 229 ft 7 kts 55°
2026-04-17 18:45 32.44568 -93.82509 230 ft 6 kts 47°
2026-04-17 18:45 32.44610 -93.82497 232 ft 7 kts 348°
2026-04-17 18:45 32.44657 -93.82507 233 ft 7 kts 349°
2026-04-17 18:46 32.44711 -93.82520 235 ft 8 kts 345°
2026-04-17 18:46 32.44772 -93.82534 235 ft 10 kts 351°
2026-04-17 18:46 32.44833 -93.82548 234 ft 10 kts 349°
2026-04-17 18:46 32.44904 -93.82564 232 ft 11 kts 348°
2026-04-17 18:47 32.44975 -93.82580 233 ft 9 kts 348°
2026-04-17 18:47 32.45024 -93.82576 235 ft 6 kts 30°
2026-04-17 18:47 32.45065 -93.82570 237 ft 6 kts
2026-04-17 18:47 32.45103 -93.82570 239 ft 4 kts 325°
2026-04-17 18:48 32.45106 -93.82605 240 ft 3 kts 269°
2026-04-17 18:48 32.45106 -93.82609 240 ft 0 kts 269°